This is the latest recevied weather packets stored in our database for station/object PA3CPS. If no packets are shown the sender has not sent any weather packets the latest 10 day(s).
| Time | Temp. | Humidity | Pressure | Rain* | Wind** | Luminosity | Snow |
|---|---|---|---|---|---|---|---|
| 1777397642 | 17.22° C | 36% | 1022.8 hPa | 0 mm | - | 146 W/m² | - |
| 1777397344 | 17.22° C | 35% | 1022.7 hPa | 0 mm | - | 162 W/m² | - |
| 1777397042 | 17.22° C | 36% | 1022.8 hPa | 0 mm | - | 181 W/m² | - |
| 1777396743 | 17.78° C | 36% | 1022.6 hPa | 0 mm | - | 197 W/m² | - |
| 1777396442 | 17.78° C | 37% | 1022.6 hPa | 0 mm | - | 211 W/m² | - |
| 1777396141 | 17.78° C | 36% | 1022.6 hPa | 0 mm | - | 230 W/m² | - |
| 1777395839 | 17.78° C | 36% | 1022.5 hPa | 0 mm | - | 246 W/m² | - |
| 1777395539 | 18.33° C | 36% | 1022.6 hPa | 0 mm | - | 258 W/m² | - |
| 1777395235 | 18.33° C | 36% | 1022.6 hPa | 0 mm | - | 276 W/m² | - |
| 1777394928 | 18.33° C | 35% | 1022.6 hPa | 0 mm | - | 290 W/m² | - |
| 1777394626 | 18.33° C | 35% | 1022.6 hPa | 0 mm | - | 306 W/m² | - |
| 1777394325 | 18.33° C | 34% | 1022.5 hPa | 0 mm | - | 320 W/m² | - |
| 1777394024 | 18.33° C | 35% | 1022.5 hPa | 0 mm | - | 334 W/m² | - |
| 1777393723 | 18.89° C | 36% | 1022.5 hPa | 0 mm | - | 348 W/m² | - |
| 1777393419 | 18.89° C | 34% | 1022.5 hPa | 0 mm | - | 362 W/m² | - |
| 1777393117 | 18.89° C | 34% | 1022.4 hPa | 0 mm | - | 378 W/m² | - |
| 1777392815 | 18.33° C | 35% | 1022.5 hPa | 0 mm | - | 392 W/m² | - |
| 1777392514 | 18.89° C | 35% | 1022.4 hPa | 0 mm | - | 404 W/m² | - |
| 1777392213 | 18.89° C | 35% | 1022.5 hPa | 0 mm | - | 422 W/m² | - |
| 1777391913 | 18.89° C | 35% | 1022.5 hPa | 0 mm | - | 434 W/m² | - |
| 1777391613 | 18.89° C | 35% | 1022.5 hPa | 0 mm | - | 446 W/m² | - |
| 1777391313 | 18.89° C | 34% | 1022.4 hPa | 0 mm | - | 462 W/m² | - |
| 1777391013 | 18.89° C | 34% | 1022.5 hPa | 0 mm | - | 471 W/m² | - |
| 1777390715 | 18.89° C | 34% | 1022.5 hPa | 0 mm | - | 489 W/m² | - |
| 1777390411 | 18.89° C | 35% | 1022.4 hPa | 0 mm | - | 503 W/m² | - |
* Rain latest hour (hover to see other rain measurements)
** Current wind speed in m/s (hover to see current wind gust speed)